Probability
2 2 4 5 4 3 3 4 4 4 4 2 1 0 0 0 0 0 0 0 0 0 0 0 0 0 0 0 0 0 0 0 0 0 0 0 0 0 0 0 0 0 0
2 3 5 5 4 4 4 4 5 5 4 2 1 0 0 0 0 0 0 0 0 0 0 0 0 0 0 0 0 0 0 0 0 0 0 0 0 0 0 0 0 0 0
3 3 5 6 5 5 5 5 5 4 3 3 1 0 0 0 0 0 0 0 0 0 0 0 0 0 0 0 0 0 0 0 0 0 0 0 0 0 0 0 0 0 0
4 5 6 6 6 6 5 4 4 3 3 3 3 1 0 0 0 0 0 0 0 0 0 0 0 0 0 0 0 0 0 0 0 0 0 0 0 0 0 0 0 0 0
4 6 6 6 6 6 5 4 3 3 3 4 4 3 1 0 0 0 0 0 0 0 0 0 0 0 0 0 0 0 0 0 0 0 0 0 0 0 0 0 0 0 0
4 6 6 6 6 6 6 5 4 3 3 4 5 5 3 2 2 1 0 0 0 0 0 0 0 0 0 0 0 0 0 0 0 0 0 0 0 0 0 0 0 0 0
4 6 6 6 6 6 6 6 4 3 3 3 4 5 4 4 5 3 1 0 1 1 1 0 0 0 0 0 0 0 0 0 0 0 0 0 0 0 0 0 0 0 0
4 5 6 6 6 6 6 6 5 4 3 3 3 4 4 5 6 5 3 1 1 2 1 0 0 0 0 0 0 0 0 0 0 0 0 0 0 0 0 0 0 0 0
3 5 6 6 6 6 6 6 6 5 4 3 3 3 3 3 4 4 4 2 1 2 2 0 0 0 0 0 0 0 0 0 0 0 0 0 0 0 0 0 0 0 0
3 4 5 6 6 6 6 6 6 5 4 2 1 1 1 1 1 3 3 3 3 3 2 1 1 1 0 0 0 0 0 0 0 0 0 0 0 0 0 0 0 0 0
2 3 3 4 5 4 4 4 4 4 3 2 0 0 1 1 1 2 2 2 3 3 3 3 3 2 1 0 0 0 0 0 0 0 0 0 0 0 0 0 0 0 0
1 1 1 1 2 3 3 3 3 3 3 2 1 1 2 2 3 2 1 1 2 3 3 4 4 3 2 1 0 0 0 0 0 0 0 0 0 0 0 0 0 0 0
0 0 0 0 1 2 2 3 3 3 3 2 1 1 3 4 4 3 2 1 1 1 2 3 3 3 2 1 0 0 0 0 0 0 0 0 1 1 0 0 0 0 0
0 0 0 0 0 1 1 1 2 3 3 2 1 2 4 5 5 5 4 3 1 1 1 1 1 1 1 0 0 0 0 0 0 0 0 0 1 2 1 0 0 0 0
0 0 0 0 0 0 0 0 1 2 3 2 1 3 5 6 6 6 6 5 4 2 1 0 0 0 0 0 0 0 0 0 0 0 0 0 1 1 1 0 0 0 0
0 0 0 1 0 0 0 0 0 1 2 2 1 2 4 6 6 6 5 5 6 5 2 1 0 0 0 0 0 0 0 0 0 0 0 0 0 0 0 0 0 0 0
0 0 0 0 0 0 0 0 0 0 1 1 0 1 3 5 6 6 5 6 7 7 4 1 0 0 0 0 0 0 0 0 0 0 0 0 0 0 1 1 1 0 0
0 0 0 0 0 0 0 0 0 0 0 0 0 0 1 3 4 5 5 6 7 7 5 1 0 0 0 0 0 0 0 0 0 0 0 0 0 0 1 2 1 0 0
0 0 0 0 0 0 0 0 0 0 0 0 0 0 0 1 1 2 3 4 5 5 4 1 0 0 0 0 0 0 0 0 0 0 0 0 0 0 0 1 1 0 0
0 0 0 0 0 0 0 0 0 0 0 0 0 0 0 0 0 0 1 2 3 3 3 1 0 0 0 0 0 0 0 0 0 0 0 0 0 0 0 0 0 0 0
0 0 0 0 0 0 0 0 0 0 0 0 0 0 0 0 0 0 0 1 2 3 3 2 1 0 0 0 0 0 0 0 0 0 0 0 0 0 0 0 0 0 0
0 0 0 0 0 0 0 0 0 0 0 0 0 0 0 0 0 0 0 0 1 2 3 2 1 0 0 0 0 0 0 0 0 0 0 0 0 0 0 0 0 0 0
0 0 0 0 0 0 0 0 0 0 0 0 0 0 0 0 0 0 0 0 0 1 2 2 1 0 0 0 0 0 0 0 0 0 0 0 0 0 0 0 0 0 0
0 0 0 0 0 0 0 0 0 0 0 0 0 0 0 0 0 0 0 0 0 0 1 1 0 0 0 0 0 0 0 0 0 0 0 0 0 0 0 0 0 0 0
0 0 0 0 0 0 0 0 0 0 0 0 0 0 0 0 0 0 0 0 0 0 0 0 0 0 0 0 0 0 0 0 0 0 0 0 0 0 0 0 0 0 0
0 0 0 0 0 0 0 0 0 0 0 0 0 0 0 0 0 0 0 0 0 0 0 0 0 0 0 0 0 0 0 0 0 0 0 0 0 0 0 0 0 0 0
Wind_Speed
5 6 10 12 12 12 12 13 13 13 14 13 13 14 14 14 14 14 14 13 13 13 13 13 13 13 13 13 13 13 13 12 12 12 12 12 12 13 14 13 12 9 13
4 5 9 12 12 13 12 13 13 13 14 14 14 14 14 14 13 14 14 13 13 13 13 13 13 12 12 13 13 12 11 11 10 9 9 9 11 13 14 14 13 9 13
6 6 7 12 13 13 13 13 13 13 13 14 14 14 13 13 13 14 14 14 13 13 13 13 13 12 12 12 12 11 11 10 9 8 7 5 7 12 13 13 13 13 12
6 6 7 12 13 13 14 13 14 13 14 14 14 13 13 13 13 14 14 14 14 13 13 13 13 13 12 12 11 11 10 9 8 7 5 6 6 11 12 12 12 12 12
7 7 8 12 13 13 14 14 14 13 13 14 14 14 13 13 13 13 14 14 14 14 13 13 13 12 12 11 11 10 10 9 8 6 5 6 5 10 11 12 11 11 11
7 7 7 12 13 13 13 14 14 14 13 13 14 14 14 13 13 13 14 13 13 13 13 13 12 12 12 11 11 10 10 10 7 4 5 6 5 9 10 10 10 10 10
7 6 7 11 12 13 14 14 14 14 14 14 13 14 14 14 13 13 13 13 13 13 13 13 12 11 11 11 11 10 11 10 5 5 6 6 6 9 9 9 9 9 9
6 6 6 10 12 13 13 14 14 14 14 14 13 13 13 14 13 13 13 13 13 13 12 12 11 11 11 11 11 10 11 9 6 6 6 6 8 9 9 8 7 8 8
6 6 5 5 8 11 12 13 14 14 14 14 13 13 13 13 13 13 13 12 12 12 12 12 11 10 10 10 10 10 10 10 6 5 7 5 9 9 9 8 7 7 7
6 6 6 6 6 5 6 11 12 13 13 13 13 12 12 11 12 13 12 12 12 11 11 11 11 10 9 9 9 9 9 7 5 6 5 6 10 10 9 8 8 7 7
5 5 5 5 5 5 5 7 8 10 11 11 10 12 10 6 5 7 9 12 11 11 11 11 10 10 8 7 7 8 6 3 4 4 4 7 9 9 9 9 8 7 6
4 5 5 5 5 5 5 4 3 4 5 6 6 7 5 5 5 6 9 10 11 11 10 10 10 9 7 3 4 6 3 3 3 3 5 9 9 9 9 9 8 7 6
4 4 4 4 4 4 3 3 3 3 3 5 6 7 5 4 4 4 3 5 6 7 5 7 6 4 4 3 3 3 3 2 2 2 4 8 9 9 9 9 8 7 6
4 4 3 3 3 4 3 3 3 3 3 4 5 6 5 4 4 4 3 4 4 3 4 4 4 5 4 4 3 3 3 2 2 2 3 7 8 8 8 8 7 7 6
4 3 3 3 3 4 3 3 4 3 4 4 4 5 5 4 4 4 4 4 4 4 4 4 4 5 4 4 4 4 3 3 2 2 2 6 7 8 8 8 7 7 6
3 3 3 3 3 3 3 3 3 3 3 3 4 5 6 4 4 4 4 4 4 4 4 3 4 4 3 3 4 3 3 2 2 2 2 3 5 6 7 7 7 7 6
3 3 3 3 3 3 3 3 3 2 3 3 4 5 5 5 4 4 4 4 4 4 4 4 4 4 4 4 4 3 3 3 2 2 2 1 2 4 6 7 6 7 7
3 3 3 3 3 3 3 3 2 3 3 3 3 4 6 6 5 4 4 4 4 4 4 3 4 4 4 4 3 3 2 2 2 1 2 2 2 2 4 6 6 7 7
4 3 3 3 3 3 3 3 3 3 3 3 3 4 5 6 6 4 3 4 4 3 3 4 4 3 4 4 4 3 2 2 2 2 1 2 2 2 2 5 7 7 7
4 3 3 3 3 3 2 2 2 3 3 3 3 4 5 4 5 4 3 4 4 3 3 4 4 4 3 4 4 3 2 2 1 1 1 2 2 3 3 3 3 4 7
4 3 3 3 2 2 1 1 2 2 2 2 3 4 4 5 5 4 4 4 4 3 3 4 4 4 3 3 3 3 2 1 1 1 2 2 2 3 3 3 2 2 3
4 3 3 2 2 2 1 1 1 1 1 1 2 3 4 5 5 4 4 4 4 3 4 4 4 3 3 3 2 2 2 2 2 2 1 1 1 2 3 3 3 3 2
4 4 3 3 2 2 2 1 2 1 1 2 2 2 3 4 4 4 4 3 4 3 3 4 3 3 3 3 2 1 1 1 3 2 1 0 1 2 2 2 3 3 3
4 4 3 3 2 2 2 2 2 1 1 1 1 1 2 3 3 4 4 4 3 3 3 4 3 3 2 2 2 2 1 1 1 3 2 1 1 2 2 3 3 2 2
4 4 3 3 2 2 2 1 1 1 0 1 1 2 2 2 3 3 3 3 3 3 3 4 3 3 2 2 2 2 2 2 2 2 4 3 2 2 2 2 2 2 2
4 4 3 3 2 2 2 1 1 1 1 1 2 2 2 2 2 3 3 3 3 3 3 4 4 3 3 3 3 2 2 2 2 2 3 4 4 3 3 3 2 2 2
Wind_Direction
36 26 15 15 27 33 37 38 39 40 42 43 45 45 44 43 44 45 43 44 48 49 50 52 54 54 54 55 54 54 53 52 54 58 57 56 58 59 58 57 61 61 67
48 39 22 25 34 37 40 40 40 41 42 42 44 45 44 43 45 46 44 43 47 49 48 49 50 52 54 55 53 51 49 47 48 50 55 56 56 58 58 57 61 64 66
55 49 33 33 38 40 40 41 41 42 42 41 41 43 43 42 44 44 43 43 45 47 47 47 47 50 53 54 52 47 42 38 36 40 50 56 61 60 60 61 62 63 64
58 53 41 38 41 41 41 40 41 42 43 41 40 41 42 42 44 44 44 44 44 46 46 47 48 50 52 51 49 45 38 32 25 31 50 55 56 61 60 59 60 60 61
63 57 44 43 45 43 42 42 41 42 42 41 39 39 40 41 44 45 43 44 44 44 45 47 48 49 49 48 46 41 32 23 19 30 48 58 56 61 60 58 58 58 58
62 58 48 46 47 45 44 43 41 41 41 41 40 40 39 40 42 44 43 44 44 42 43 44 46 47 47 44 41 35 26 18 13 37 51 54 52 59 59 57 56 59 59
61 58 54 50 47 46 44 43 40 39 39 40 41 41 40 40 43 44 43 42 42 42 42 42 43 46 45 41 37 31 22 12 19 46 55 52 48 56 58 57 56 58 58
64 63 61 51 49 45 43 42 40 39 38 39 40 39 40 39 39 42 41 40 40 41 40 40 41 44 43 40 34 27 19 14 25 43 55 48 44 50 53 53 55 57 58
60 59 60 55 50 45 42 41 40 39 38 37 37 37 37 37 37 39 37 37 38 40 38 37 38 39 41 38 31 23 17 13 23 37 51 44 39 43 47 46 48 54 55
59 53 51 46 42 42 42 41 40 38 36 35 33 30 32 34 35 37 33 33 34 35 36 34 33 34 37 34 26 19 15 13 29 36 40 39 39 38 42 44 43 49 51
55 49 49 44 38 35 40 42 38 36 31 29 27 22 22 22 28 34 28 27 28 30 30 29 28 27 26 24 20 16 15 15 35 39 36 40 41 38 36 38 36 39 48
59 48 46 42 37 33 32 33 26 31 25 22 20 17 18 16 16 30 23 23 22 24 21 21 23 23 19 9 9 14 7 15 44 40 39 41 41 37 32 29 28 30 40
78 58 46 42 34 38 28 26 23 21 23 21 18 16 13 13 10 20 20 14 12 19 13 8 12 10 8 8 7 1 2 16 43 40 42 42 39 35 31 27 24 23 32
89 71 50 44 38 37 33 30 27 22 23 22 13 15 15 12 13 10 17 11 11 9 6 4 360 0 0 1 3 359 7 13 40 40 43 42 36 31 27 25 22 18 19
97 81 63 51 43 39 36 30 33 25 27 23 16 13 16 19 13 8 7 12 10 4 5 360 356 357 358 358 359 5 8 18 35 41 42 41 32 26 22 20 17 14 11
105 96 81 67 52 44 46 41 36 27 26 25 20 15 14 19 14 10 6 7 8 360 358 359 350 351 350 353 350 354 2 10 33 39 47 36 32 25 18 15 14 13 10
111 97 82 79 60 54 53 46 42 30 32 27 19 15 15 18 14 15 9 5 1 355 353 352 350 355 356 355 349 345 356 5 18 32 40 31 21 25 17 11 10 10 7
110 104 92 83 70 55 52 49 48 39 37 32 20 16 17 14 13 13 11 1 355 355 355 350 354 357 356 351 341 330 338 355 2 27 39 37 32 27 14 14 12 9 3
116 111 102 90 81 71 63 55 53 46 40 35 25 19 14 14 10 12 6 359 353 356 1 355 356 358 351 348 333 323 335 344 341 12 36 39 40 36 27 20 14 9 6
123 119 113 103 94 87 82 69 57 46 36 31 25 18 13 11 9 8 3 0 356 1 5 4 353 355 350 341 327 325 313 296 314 36 33 44 39 36 35 29 15 10 11
128 125 117 110 106 97 87 70 56 34 24 25 22 16 12 9 7 10 3 355 359 360 359 359 357 349 351 343 337 329 316 315 49 57 36 33 36 33 32 23 20 16 360
146 137 125 116 101 83 73 65 79 63 33 29 16 16 11 9 6 8 7 357 354 352 353 358 359 348 342 358 347 327 335 336 1 351 360 1 26 31 20 6 8 5 356
151 149 142 129 111 92 77 81 71 50 29 18 10 6 3 1 3 3 359 354 350 350 345 345 357 358 334 333 359 353 353 312 329 297 270 335 24 9 351 349 352 353 346
154 142 136 134 124 110 97 100 94 63 13 344 344 337 340 357 4 2 356 351 349 347 341 334 351 340 329 315 317 319 293 289 285 307 297 300 325 324 333 329 328 322 324
143 140 140 136 127 117 107 106 101 77 40 8 351 340 342 349 3 359 355 350 348 344 339 334 332 333 320 306 301 303 302 300 262 256 283 299 304 286 295 296 287 290 298
138 138 141 141 137 130 129 125 120 105 49 1 342 340 337 335 347 352 352 348 339 335 335 328 321 313 309 306 304 292 285 277 281 274 276 290 292 286 289 275 268 272 275